World > North America > United States > Illinois

Adair, Illinois Regional Weather

Lat: 40.42N, Lon: 90.5W
Wx Zone: ILZ035Web Search

Pass this page to a friend. Tell them to point their camera at the QR Code near the bottom of this page.

Feedback


°F Click to change Adair hourly weather to Imperial units.Click to change Adair hourly weather to Metric units. °C
Adair Weather Map
UTC Time: 5/6/2021, 00:33
Your Time:

Adair, IL Regional Weather

Expires:202105060100;;657333
ASUS43 KLOT 060009
RWRIL 

ILLINOIS REGIONAL WEATHER ROUNDUP
NATIONAL WEATHER SERVICE CHICAGO/ROMEOVILLE IL
700 PM CDT WED MAY 05 2021

NOTE: "FAIR" INDICATES FEW OR NO CLOUDS BELOW 12,000 FEET WITH NO
SIGNIFICANT WEATHER AND/OR OBSTRUCTIONS TO VISIBILITY.

* THESE STATIONS ARE NOT UNDER NWS QUALITY CONTROL. THEY ALSO MAY NOT
  REPORT WEATHER SUCH AS PRECIPITATION OR FOG.


ILZ025>027-034>036-040-047-049-050-058-095>099-060100-
WEST-CENTRAL ILLINOIS
  
CITY           SKY/WX    TMP DP  RH WIND       PRES   REMARKS
QUINCY         SUNNY     64  32  30 CALM      30.11S                  
GALESBURG*     MOSUNNY   59  33  37 SW3       30.13S                  
MACOMB*        MOSUNNY   64  36  36 NW5       30.13S                  
JACKSONVILLE*  SUNNY     65  35  32 CALM      30.12R                  
PITTSFIELD*    MOSUNNY   67  37  33 SW6       30.13R                  
$$


SKY/WX - Weather  TMP - Temperature  DP - Dew Point  RH - Relative Humidity
WIND - Wind Direction/Speed PRES - Barometric Pressure VSB - Visibility
WCI - Wind Chill Index E13G22 Wind - East Wind 13 mph/Gusts of 22 mph